Location: Tierra del Sol
(32.6128°N, 116.3319°W)
Time: 01:28:14
(UTC-07:00)

N. Korean satellite - Pass Details

Date: 16 October 2017
Orbit: 459 x 517 km, 97.2° (Epoch: 20 October)

Event Time Altitude Azimuth Distance (km) Brightness Sun altitude
Rises 18:42:24 0° 161° (SSE) 2,547 10.1 -7.4°
Reaches altitude 10° 18:44:29 10° 157° (SSE) 1,661 9.1 -7.9°
Maximum altitude 18:48:00 61° 77° (ENE) 549 6.5 -8.6°
Drops below altitude 10° 18:51:29 10° 357° (N) 1,641 9.2 -9.3°
Sets 18:53:32 0° 354° (N) 2,513 10.2 -9.8°
